EW6715 Weather Reports


Display with metric or nautical units.
time (UTC)temp
F
wind
direction
speed
MPH
gust
MPH
rain 1hr
in
rain 24hr
in
rain mn
in
humidity
%
barometer
mb
20260510044547 59 0.0 0.0 0.00 0.01 0.00 68 1010.1
20260510043043 59 0.0 0.0 0.00 0.01 0.00 72 1010.3
20260510041602 60 0.0 0.0 0.00 0.01 0.00 72 1010.4
20260510040050 60 0.0 0.0 0.00 0.01 0.00 73 1010.3
20260510034553 60 0.0 0.0 0.00 0.01 0.01 75 1010.3
20260510033051 61 0.0 0.0 0.00 0.01 0.01 77 1010.1
20260510031552 61 0.0 0.0 0.00 0.01 0.01 77 1010.2
20260510030051 61 0.0 0.0 0.00 0.01 0.01 77 1010.1
20260510024601 62 0.0 0.0 0.00 0.01 0.01 77 1010.1
20260510023046 62 0.0 0.0 0.00 0.01 0.01 77 1009.9
20260510021548 62 0.0 0.0 0.00 0.01 0.01 77 1009.9
20260510020046 62 0.0 0.0 0.00 0.01 0.01 76 1009.7
20260510014610 63 0.0 0.0 0.00 0.01 0.01 76 1009.7
20260510013101 63 0.0 0.0 0.00 0.01 0.01 75 1009.4
20260510011546 64 0.0 0.0 0.00 0.01 0.01 74 1009.0
20260510010046 64 0.0 0.0 0.00 0.01 0.01 73 1009.0
20260510004550 65 0.0 0.0 0.00 0.01 0.01 72 1008.9
20260510003048 65 0.0 0.0 0.00 0.01 0.01 71 1008.9
20260510001544 66 0.0 0.0 0.00 0.01 0.01 70 1008.8
20260510000046 67 0.0 0.0 0.00 0.01 0.01 69 1008.6
20260509234541 67 0.0 0.0 0.00 0.01 0.01 68 1008.4
20260509233052 68 0.0 0.0 0.00 0.01 0.01 66 1008.4
20260509231555 69 0.0 0.0 0.00 0.01 0.01 66 1008.5
20260509230047 69 0.0 0.0 0.00 0.01 0.01 64 1008.3
20260509224544 70 0.0 0.0 0.00 0.01 0.01 63 1008.3
20260509223047 71 0.0 0.0 0.00 0.01 0.01 61 1008.2
20260509221545 71 0.0 0.0 0.00 0.01 0.01 59 1008.4
20260509220045 71 0.0 0.0 0.00 0.01 0.01 61 1008.3
20260509214558 71 0.0 0.0 0.00 0.01 0.01 60 1008.3
20260509213046 71 0.0 0.0 0.00 0.01 0.01 62 1008.3
20260509211554 71 0.0 0.0 0.00 0.01 0.01 63 1008.3
20260509210058 70 0.0 0.0 0.00 0.01 0.01 64 1008.3
20260509204550 70 0.0 0.0 0.00 0.01 0.01 64 1008.3
20260509203046 69 0.0 0.0 0.00 0.01 0.01 65 1008.0
20260509201546 68 0.0 0.0 0.00 0.01 0.01 68 1008.2
20260509200049 67 0.0 0.0 0.00 0.01 0.01 75 1008.5
20260509194546 66 0.0 0.0 0.00 0.01 0.01 76 1008.7
20260509193047 66 0.0 0.0 0.00 0.01 0.01 67 1008.9
20260509191547 65 0.0 0.0 0.01 0.01 0.01 64 1009.3
20260509190050 65 0.0 0.0 0.01 0.01 0.01 60 1009.2
20260509184547 65 0.0 0.0 0.01 0.01 0.01 74 1009.2
20260509183048 67 0.0 0.0 0.01 0.01 0.01 74 1009.6
20260509181546 68 0.0 0.0 0.00 0.00 0.00 62 1009.7
20260509180044 68 0.0 0.0 0.00 0.00 0.00 61 1010.0
20260509174542 69 0.0 0.0 0.00 0.00 0.00 60 1010.0
20260509173114 69 0.0 0.0 0.00 0.00 0.00 60 1010.0
20260509171548 68 0.0 0.0 0.00 0.00 0.00 59 1010.1
20260509170055 68 0.0 0.0 0.00 0.00 0.00 63 1010.2
20260509164544 67 0.0 0.0 0.00 0.00 0.00 64 1010.2
20260509163045 66 0.0 0.0 0.00 0.00 0.00 66 1010.4
20260509161544 66 0.0 0.0 0.00 0.00 0.00 64 1010.4
20260509160049 66 0.0 0.0 0.00 0.00 0.00 65 1010.4
20260509154548 65 0.0 0.0 0.00 0.00 0.00 66 1010.7
20260509153045 64 0.0 0.0 0.00 0.00 0.00 67 1010.9
20260509151555 63 0.0 0.0 0.00 0.00 0.00 68 1010.8
20260509150051 62 0.0 0.0 0.00 0.00 0.00 68 1010.9
20260509144541 61 0.0 0.0 0.00 0.00 0.00 70 1011.2
20260509143057 61 0.0 0.0 0.00 0.00 0.00 72 1011.4
20260509141550 60 0.0 0.0 0.00 0.00 0.00 72 1011.7
20260509140046 59 0.0 0.0 0.00 0.00 0.00 72 1011.5
20260509134547 59 0.0 0.0 0.00 0.00 0.00 72 1011.6
20260509133047 58 0.0 0.0 0.00 0.00 0.00 72 1011.6
20260509131556 58 0.0 0.0 0.00 0.00 0.00 71 1011.6
20260509130122 58 0.0 0.0 0.00 0.00 0.00 72 1011.5
20260509124543 58 0.0 0.0 0.00 0.00 0.00 72 1011.6
20260509123116 58 0.0 0.0 0.00 0.00 0.00 71 1011.5
20260509121549 57 0.0 0.0 0.00 0.00 0.00 71 1011.5
20260509120049 57 0.0 0.0 0.00 0.00 0.00 70 1011.5
20260509114618 57 0.0 0.0 0.00 0.00 0.00 70 1011.5
20260509113051 56 0.0 0.0 0.00 0.00 0.00 71 1011.5
20260509111545 56 0.0 0.0 0.00 0.00 0.00 69 1011.4
20260509110057 56 0.0 0.0 0.00 0.00 0.00 66 1011.3
20260509104541 56 0.0 0.0 0.00 0.00 0.00 65 1011.4
20260509103044 56 0.0 0.0 0.00 0.00 0.00 64 1011.2
20260509101557 56 0.0 0.0 0.00 0.00 0.00 64 1010.9
20260509100051 56 0.0 0.0 0.00 0.00 0.00 64 1010.9
20260509094546 56 0.0 0.0 0.00 0.00 0.00 63 1010.9
20260509093046 56 0.0 0.0 0.00 0.00 0.00 63 1010.9
20260509091552 56 0.0 0.0 0.00 0.00 0.00 63 1011.0
20260509090050 56 0.0 0.0 0.00 0.00 0.00 63 1011.0
20260509084556 56 0.0 0.0 0.00 0.00 0.00 62 1011.3
20260509083047 57 0.0 0.0 0.00 0.00 0.00 62 1011.3
20260509081548 57 0.0 0.0 0.00 0.00 0.00 62 1011.5
20260509080050 57 0.0 0.0 0.00 0.00 0.00 62 1011.7
20260509074544 57 0.0 0.0 0.00 0.00 0.00 62 1011.9
20260509073048 57 0.0 0.0 0.00 0.00 0.00 61 1011.8
20260509071552 56 0.0 0.0 0.00 0.00 0.00 62 1011.8
20260509070052 56 0.0 0.0 0.00 0.00 0.00 62 1011.8
20260509064554 56 0.0 0.0 0.00 0.00 0.00 63 1012.0
20260509063045 56 0.0 0.0 0.00 0.00 0.00 64 1012.0
20260509061600 56 0.0 0.0 0.00 0.00 0.00 65 1012.2
20260509060051 55 0.0 0.0 0.00 0.00 0.00 66 1012.0
20260509054607 55 0.0 0.0 0.00 0.00 0.00 66 1012.2
20260509053052 55 0.0 0.0 0.00 0.00 0.00 67 1012.3
20260509051547 55 0.0 0.0 0.00 0.00 0.00 66 1012.3
20260509050046 56 0.0 0.0 0.00 0.00 0.00 64 1012.2